Walla Walla, WA
on Monday, November 5, 2012

Monday
Previous Day Next Day
Daily Summary
 ActualAverage (KPDT)Record (KPDT)
Temperature
Mean Temperature °F 45°F  
Max Temperature 70°F 54°F 75°F (1934)
Min Temperature 52°F 36°F 13°F (2003)
Degree Days
Heating Degree Days 4 20  
Month to date heating degree days 97  
Since 1 July heating degree days 639  
Cooling Degree Days 0 0  
Month to date cooling degree days 0  
Year to date cooling degree days 636  
Growing Degree Days12 (Base °F )  
Moisture
Dew Point 51°F   
Average Humidity 69    
Maximum Humidity 87    
Minimum Humidity 51    
Precipitation
Precipitation 0.00 in 0.05 in 0.50 in (1991)
Month to date precipitation 0.24  
Year to date precipitation 9.91  
Snow
Snow 0.00 in 0.10 in 4.70 in (1973)
Month to date snowfall 0.1  
Year to date snowfall 7.9  
Since 1 July snowfall 0.2  
Snow Depth in   
Wind
Wind Speed 8 mph   
Max Wind Speed 15 mph   
Max Gust Speed mph   
Visibility 10 miles   
Events     

Key: T is trace of precipitation, MM is missing value
Source: NWS Daily Summary
Time(PST)TemperatureDew PointHumidity Pressure Visibility Wind DirectionWind SpeedGust SpeedPrecipitationEvents Conditions
12:53 AM 59.0°F 50.0°F 72% 30.28 in 10.0 miles South 5.8 mph - N/A   Clear
1:53 AM 57.9°F 50.0°F 75% 30.29 in 10.0 miles South 4.6 mph - N/A   Clear
2:53 AM 59.0°F 48.9°F 69% 30.27 in 10.0 miles South 11.5 mph - N/A   Clear
4:53 AM 60.1°F 50.0°F 69% 30.25 in 10.0 miles South 12.7 mph - N/A   Partly Cloudy
5:53 AM 63.0°F 48.0°F 58% 30.24 in 10.0 miles SW 15.0 mph - N/A   Clear
6:53 AM 63.0°F 48.9°F 60% 30.27 in 10.0 miles SW 10.4 mph - N/A   Mostly Cloudy
7:53 AM 62.1°F 50.0°F 65% 30.28 in 10.0 miles South 13.8 mph - N/A   Partly Cloudy
8:53 AM 64.0°F 50.0°F 60% 30.29 in 10.0 miles South 9.2 mph - N/A   Clear
9:53 AM 69.1°F 50.0°F 51% 30.30 in 10.0 miles SW 12.7 mph - N/A   Clear
10:53 AM 70.0°F 52.0°F 53% 30.28 in 10.0 miles SW 9.2 mph - N/A   Clear
11:53 AM 70.0°F 52.0°F 53% 30.27 in 10.0 miles WSW 6.9 mph - N/A   Mostly Cloudy
12:53 PM 69.1°F 52.0°F 54% 30.26 in 10.0 miles WSW 9.2 mph - N/A   Clear
1:53 PM 70.0°F 54.0°F 57% 30.25 in 10.0 miles SW 8.1 mph - N/A   Clear
2:53 PM 70.0°F 55.0°F 59% 30.24 in 10.0 miles WSW 5.8 mph - N/A   Clear
3:53 PM 66.9°F 55.9°F 68% 30.24 in 7.0 miles Calm Calm - N/A   Clear
4:53 PM 60.1°F 54.0°F 80% 30.23 in 10.0 miles NNE 4.6 mph - N/A   Clear
5:53 PM 57.9°F 54.0°F 87% 30.22 in 10.0 miles East 4.6 mph - N/A   Clear
6:53 PM 59.0°F 53.1°F 81% 30.22 in 10.0 miles SSE 4.6 mph - N/A   Clear
7:53 PM 55.9°F 52.0°F 87% 30.20 in 10.0 miles SE 3.5 mph - N/A   Clear
8:53 PM 53.1°F 48.9°F 86% 30.21 in 10.0 miles Calm Calm - N/A   Clear
9:53 PM 55.0°F 50.0°F 83% 30.19 in 10.0 miles ESE 5.8 mph - N/A   Clear
10:53 PM 55.0°F 48.9°F 80% 30.16 in 10.0 miles Calm Calm - N/A   Clear
11:53 PM 52.0°F 48.0°F 86% 30.15 in 10.0 miles ESE 4.6 mph - N/A   Clear
Moon Phase
Nov. 05 Nov. 06 Nov. 13 Nov. 20 Nov. 28
Sunrise:06:40 AM (PST) Moon Rise:10:15 PM (PST)11/5
Sunset:04:32 PM (PST) Moon Set:12:03 PM (PST)11/5

Copyright © 2014 The Weather Underground, Inc.